This is the latest recevied weather packets stored in our database for station/object KC3AWA. If no packets are shown the sender has not sent any weather packets the latest 10 day(s).
| Time | Temp. | Humidity | Pressure | Rain* | Wind** | Luminosity | Snow |
|---|---|---|---|---|---|---|---|
| 1777743325 | 3.33° C | 87% | 1016.8 hPa | 0 mm | - | 256 W/m² | - |
| 1777743023 | 3.33° C | 87% | 1017 hPa | 0 mm | - | 269 W/m² | - |
| 1777742720 | 3.33° C | 87% | 1016.9 hPa | 0 mm | - | 232 W/m² | - |
| 1777742416 | 3.33° C | 84% | 1017.2 hPa | 0 mm | - | 125 W/m² | - |
| 1777742112 | 3.33° C | 84% | 1017 hPa | 0 mm | - | 158 W/m² | - |
| 1777741809 | 3.33° C | 88% | 1017.1 hPa | 0 mm | - | 207 W/m² | - |
| 1777741506 | 2.78° C | 87% | 1016.9 hPa | 0 mm | - | 291 W/m² | - |
| 1777741202 | 3.33° C | 90% | 1017 hPa | 0 mm | - | 258 W/m² | - |
| 1777740899 | 2.78° C | 89% | 1017.1 hPa | 0 mm | - | 241 W/m² | - |
| 1777740596 | 2.78° C | 88% | 1017.2 hPa | 0 mm | - | 221 W/m² | - |
| 1777740292 | 3.33° C | 90% | 1017.2 hPa | 0 mm | - | 190 W/m² | - |
| 1777739989 | 2.78° C | 91% | 1017.1 hPa | 0 mm | - | 238 W/m² | - |
| 1777739685 | 2.78° C | 90% | 1017.2 hPa | 0 mm | - | 251 W/m² | - |
| 1777739383 | 2.22° C | 89% | 1017.1 hPa | 0 mm | - | 283 W/m² | - |
| 1777739079 | 2.22° C | 90% | 1017.4 hPa | 0 mm | - | 318 W/m² | - |
| 1777738777 | 2.22° C | 90% | 1017.2 hPa | 0 mm | - | 375 W/m² | - |
| 1777738473 | 2.22° C | 90% | 1017.2 hPa | 0 mm | - | 335 W/m² | - |
| 1777738171 | 2.22° C | 92% | 1017.2 hPa | 0 mm | - | 317 W/m² | - |
| 1777737869 | 1.67° C | 91% | 1017.4 hPa | 0 mm | - | 301 W/m² | - |
| 1777737567 | 1.67° C | 91% | 1017.2 hPa | 0 mm | - | 281 W/m² | - |
| 1777737265 | 1.67° C | 92% | 1017.3 hPa | 0 mm | - | 223 W/m² | - |
| 1777736961 | 1.67° C | 92% | 1017.3 hPa | 0 mm | - | 186 W/m² | - |
| 1777736049 | 1.67° C | 94% | 1017.2 hPa | 0 mm | - | 172 W/m² | - |
| 1777735746 | 1.67° C | 95% | 1017.1 hPa | 0 mm | - | 155 W/m² | - |
| 1777735443 | 1.11° C | 94% | 1017 hPa | 0 mm | - | 155 W/m² | - |
* Rain latest hour (hover to see other rain measurements)
** Current wind speed in m/s (hover to see current wind gust speed)